Miscellaneous Local Product
Issued by NWS Hastings, NE

Home | Current Version | Previous Version | Graphics & Text | Print | Product List | Glossary On
Versions: 1 2 3 4 5 6 7 8 9 10 11 12 13 14 15 16 17 18 19 20 21 22 23 24 25 26 27 28 29 30 31 32 33 34 35 36 37 38 39 40 41 42 43 44 45 46 47 48 49 50
000
AXUS43 KGID 031502
MISGRI

GID CWA HOURLY WEATHER ROUNDUP
NATIONAL WEATHER SERVICE HASTINGS NE
1000 AM CDT FRI JUL 03 2015

NOTE: "FAIR" INDICATES FEW OR NO CLOUDS BELOW 12,000 FEET WITH NO
SIGNIFICANT WEATHER AND/OR OBSTRUCTIONS TO VISIBILITY.

...SOUTH CENTRAL NEBRASKA...

CITY           SKY/WX    TMP DP  RH WIND       PRES   REMARKS
GRAND ISLAND   CLOUDY    67  61  81 N7        30.06S HAZE
HASTINGS       CLOUDY    68  62  81 NE6       30.06R
KEARNEY        CLOUDY    66  59  77 N3        30.07S
ORD            PTSUNNY   69  61  75 CALM      30.05S
YORK           CLOUDY    64  63  94 NE5       30.05R FOG
AURORA         CLOUDY    67  65  94 NE5       30.05S FOG
LEXINGTON      CLOUDY    65  64  96 CALM      30.09R
HOLDREGE       CLOUDY    64  61  87 N5        30.08R
HEBRON         CLOUDY    68  63  83 NE7       30.03R

...NEBRASKA PANHANDLE...

CITY           SKY/WX    TMP DP  RH WIND       PRES   REMARKS
CHADRON        SUNNY     70  60  70 CALM      30.10F
ALLIANCE       SUNNY     72  60  66 CALM      30.13S
SCOTTSBLUFF    SUNNY     73  57  57 CALM      30.13S
SIDNEY         PTSUNNY   72  60  66 VRB5      30.17R

...WESTERN AND NORTH CENTRAL NEBRASKA...

CITY           SKY/WX    TMP DP  RH WIND       PRES   REMARKS
VALENTINE      SUNNY     73  62  68 CALM      30.06S
AINSWORTH      SUNNY     71  63  74 N3        30.07S
ONEILL         CLOUDY    65  64  99 CALM      30.06S FOG
BROKEN BOW     SUNNY     72  63  73 VRB3      30.07S
IMPERIAL       SUNNY     75  59  57 N3        30.10S
NORTH PLATTE   SUNNY     70  61  73 CALM      30.09S
MCCOOK         PTSUNNY   69  63  81 E7        30.09R HAZE

...EASTERN NEBRASKA...

CITY           SKY/WX    TMP DP  RH WIND       PRES   REMARKS
NORFOLK        CLOUDY    66  63  90 W3        30.05R FOG
SO SIOUX CITY  SUNNY     66  56  70 CALM      30.03R
TEKAMAH        SUNNY     67  57  70 CALM      30.02S
COLUMBUS       CLOUDY    64  57  77 CALM      30.05S
ALBION         CLOUDY    65  60  82 CALM      30.05S
OMAHA EPPLEY   SUNNY     67  59  75 NW6       30.02S
OFFUTT AFB     SUNNY     68  57  68 NE2       30.01S
MILLARD        SUNNY     68  56  64 CALM      30.02S
LINCOLN        SUNNY     71  59  65 NE7       30.03S
NEBRASKA CITY  SUNNY     67  55  65 NE7       30.01R
BEATRICE       PTSUNNY   69  62  77 NE7       30.01R
FALLS CITY     SUNNY     70  60  70 NE5       29.98S

...NORTHERN KANSAS...

CITY           SKY/WX    TMP DP  RH WIND       PRES   REMARKS
GOODLAND       MOSUNNY   76  57  51 CALM      30.11S
HILL CITY      CLOUDY    69  63  81 NE7       30.08R HAZE
NORTON         CLOUDY    64  59  82 NE6       30.08S
PHILLIPSBURG   MOSUNNY   73  63  68 NW9       30.07S
SMITH CENTER   SUNNY     70  61  73 N7        30.06R
HAYS           PTSUNNY   70  57  64 N12       30.06S
RUSSELL        CLOUDY    70  64  81 N10       30.03S
CONCORDIA      CLOUDY    71  65  81 NE14      30.02R
SALINA         PTSUNNY   76  65  68 NE16      30.00R
TOPEKA         CLOUDY    68  65  90 NE5       29.97R



USA.gov is the U.S. government's official web portal to all federal, state and local government web resources and services.